{"data":{"norad_id":64761,"epoch":"2026-05-25T00:25:41.769120Z","epoch_age_seconds":76701,"freshness":"FRESH","line1":"1 64761U 25147G   26145.01784455  .00025578  00000+0  76538-3 0  9993","line2":"2 64761  53.1596 247.8116 0001091  73.0678 287.0444 15.34407631 50442","mean_motion":15.34407631,"eccentricity":0.0001091,"inclination_deg":53.1596,"raan_deg":247.8116,"arg_perigee_deg":73.0678,"mean_anomaly_deg":287.0444,"bstar":0.00076538,"rev_number":5044,"period_min":93.847291352528,"perigee_km":461.93422616522,"apogee_km":463.42689255667,"semimajor_km":6840.8175593609,"source":"CELESTRAK","updated_at":"2026-05-25T13:38:20.553906Z"}}